Location: Claremont
(33.9858°S, 18.4575°E)
Time: 21:24:55
(UTC+00:00)

COSMOS 2455 - Pass Details

Date: 03 March 2021
Orbit: 902 x 907 km, 67.1° (Epoch: 21 April)

Event Time Altitude Azimuth Distance (km) Brightness Sun altitude
Rises 19:14:22 0° 325° (NW) 3,520 6.0 -23.5°
Reaches altitude 10° 19:16:54 10° 321° (NW) 2,585 5.3 -24.0°
Maximum altitude 19:22:49 59° 242° (WSW) 1,047 3.4 -25.0°
Drops below altitude 10° 19:28:48 10° 162° (SSE) 2,609 5.3 -26.1°
Sets 19:31:22 0° 158° (SSE) 3,556 6.0 -26.6°
